Dewpoint
30 30 30 30 25 17 13 13 12 12 12 13 12 15 20 24 16 16 27 30 25 24 25 25 27 27 25 21 26 28 30 36 41 43 41 43 45 47 48 49 51 51 51 53 54 56 57 58 58 59 61 62 63 64 64 65 66 67 68 69 69 69 70 70 70 70 71 71 71 72 72 72 72 72 72 72 72 71 71 71 71 71 71 71 70 70 70
30 30 30 30 24 18 14 13 12 12 11 11 11 12 15 17 21 21 25 31 22 20 19 19 20 27 26 29 33 37 39 38 40 41 41 40 43 46 47 48 49 51 52 53 54 56 58 58 59 60 61 62 63 63 64 64 65 67 68 68 69 69 69 70 70 71 71 71 71 72 72 72 72 72 72 72 72 71 71 71 71 71 71 71 71 70 70
29 29 31 26 21 18 15 15 12 12 11 10 10 10 12 21 15 15 19 31 29 29 26 18 19 21 28 41 45 38 35 38 43 43 41 40 41 43 46 49 50 51 52 54 55 56 58 59 59 60 61 62 63 63 63 64 65 66 68 68 69 69 69 70 70 71 71 71 71 71 72 72 72 72 72 72 72 71 71 71 71 71 71 70 70 70 70
28 29 29 29 30 28 17 14 16 13 11 11 10 12 11 17 20 20 19 24 24 27 27 32 30 32 36 33 37 42 41 40 45 45 44 43 43 43 46 49 51 52 53 54 56 56 57 58 60 61 62 62 63 63 63 64 65 66 67 68 68 69 69 70 70 71 71 71 71 71 72 72 72 72 72 72 71 71 71 71 71 71 71 71 70 70 70
28 28 28 29 30 25 20 17 14 16 14 13 11 12 19 17 14 16 16 13 19 21 28 25 24 23 28 32 32 36 44 48 47 45 45 45 45 45 47 50 52 51 52 54 56 56 57 57 59 60 62 62 63 63 64 64 65 66 67 68 68 69 69 70 70 71 71 71 71 71 71 72 72 72 72 72 71 71 71 71 71 71 71 71 70 70 70
27 26 27 30 28 22 19 20 17 16 16 14 12 11 10 15 16 15 15 15 18 19 26 23 20 18 22 25 36 46 46 48 52 53 50 46 46 46 47 49 50 51 52 54 55 56 57 58 58 60 62 62 63 63 64 64 65 66 67 67 68 68 69 70 70 71 71 71 71 71 72 72 72 72 72 72 71 71 71 71 71 71 70 70 70 70 70
25 26 29 31 25 24 26 34 19 17 16 16 14 15 13 12 15 19 22 20 20 24 24 25 24 28 44 52 57 60 60 52 48 53 54 54 52 48 48 49 50 52 52 53 55 57 58 58 59 59 61 62 63 63 64 64 65 66 66 67 68 68 69 70 70 71 71 71 71 71 72 72 72 72 72 72 72 71 71 71 70 70 70 70 70 70 70
30 30 31 25 26 32 34 34 33 30 19 19 22 30 41 47 41 26 21 30 29 30 33 35 37 46 52 55 58 60 63 63 60 53 45 52 54 53 51 50 51 53 53 54 55 57 59 60 60 60 60 61 62 63 64 64 64 65 66 67 67 68 69 69 70 70 71 71 71 71 71 72 72 71 72 72 71 71 71 71 70 70 70 70 70 70 70
24 28 29 30 34 31 31 32 42 48 44 35 25 23 37 45 50 42 28 30 39 42 41 39 39 45 47 49 52 58 62 63 64 64 62 58 47 50 54 54 53 54 54 54 55 58 59 60 60 60 60 61 62 63 63 64 64 64 65 66 67 68 68 69 70 70 71 71 71 71 71 71 71 71 71 71 71 71 71 70 70 70 70 70 70 70 70
28 25 31 32 27 26 32 45 48 49 50 50 49 36 36 49 51 51 43 40 45 46 45 39 41 42 41 43 50 56 62 63 64 65 65 65 63 59 55 54 56 58 58 57 58 58 58 59 60 61 61 61 62 63 64 64 64 64 65 65 66 67 68 69 69 70 71 71 71 71 71 71 71 71 71 72 71 71 71 70 70 70 70 70 70 70 70
35 35 31 30 28 30 42 46 47 49 50 51 51 42 32 47 51 54 54 49 48 43 41 43 40 33 34 43 52 58 62 63 64 64 65 65 66 65 65 65 64 61 60 60 59 60 59 59 60 61 61 62 63 63 64 64 64 64 64 65 66 66 67 68 69 70 70 71 71 71 71 71 71 71 71 71 71 71 71 71 70 70 70 70 70 71 70
37 36 33 32 33 40 45 48 49 50 52 52 40 27 30 47 52 55 56 53 52 54 49 43 41 31 37 49 54 61 63 63 64 64 64 64 65 66 66 66 66 66 66 62 61 60 60 59 60 62 62 62 64 64 64 64 64 64 64 65 65 66 67 68 69 69 70 71 71 71 71 71 71 71 71 71 71 71 71 71 70 70 70 70 70 70 71
41 38 35 36 37 46 49 50 51 52 52 45 27 25 39 51 55 56 57 58 58 57 56 55 55 57 55 56 61 62 63 63 63 63 64 64 65 65 65 66 67 66 67 64 62 61 61 63 64 63 63 63 63 64 65 65 64 64 65 65 65 66 66 67 68 69 70 70 70 71 71 71 71 71 71 71 71 71 71 71 71 70 70 70 70 70 70
37 39 36 36 40 46 51 51 52 52 46 30 29 43 54 55 57 59 60 60 60 60 60 60 59 59 61 62 62 62 62 63 63 63 64 64 64 65 66 67 66 67 66 66 66 65 65 66 67 66 65 64 63 64 64 64 64 64 65 65 65 65 66 66 68 69 69 70 70 71 71 71 71 71 71 71 71 71 71 71 70 70 70 70 70 68 68
43 41 38 35 32 41 52 53 51 52 47 47 51 51 55 59 58 60 59 60 59 59 59 59 60 60 61 61 62 62 62 63 63 63 63 64 64 64 64 65 66 67 66 67 67 68 69 70 68 68 67 66 65 64 64 64 65 66 66 66 66 66 66 66 67 68 69 69 70 70 71 71 71 70 71 71 71 71 71 71 70 70 69 68 67 66 65
37 39 35 35 47 52 53 53 48 51 52 51 50 50 56 59 59 59 59 59 59 60 60 60 60 61 61 61 62 62 62 62 63 63 63 64 64 65 65 65 65 66 66 66 67 67 67 68 68 68 68 67 67 67 66 68 69 68 67 66 66 66 65 65 66 67 68 69 69 70 70 71 71 71 71 71 71 71 71 70 70 68 67 66 66 65 64
44 40 44 52 54 55 55 56 54 54 52 51 49 50 54 57 58 59 59 60 60 60 60 60 60 60 61 61 62 61 61 62 62 62 63 64 64 65 64 64 65 65 65 65 65 66 67 67 67 67 67 68 67 67 68 69 70 69 68 67 65 65 65 65 65 66 67 68 69 70 70 71 71 71 71 71 70 70 70 69 68 66 65 65 64 64 63
53 53 54 56 55 55 55 55 57 55 52 52 50 48 50 52 55 58 59 59 59 59 59 58 58 59 59 59 59 59 59 60 60 62 63 64 65 65 65 65 64 64 65 65 66 66 66 67 68 67 67 67 67 67 68 71 71 70 69 67 65 65 64 64 65 65 66 67 68 69 71 71 71 71 71 70 70 69 68 67 66 66 65 65 64 63 63
44 40 53 53 54 55 54 54 55 55 55 54 54 52 52 50 50 51 52 53 53 53 53 53 53 53 55 55 56 57 58 58 59 61 62 63 64 65 65 65 65 64 65 65 65 66 66 67 67 68 67 67 67 67 67 70 72 72 71 69 67 65 64 64 65 65 66 67 69 70 71 72 72 72 71 70 69 68 68 67 66 66 65 65 64 64 63
45 46 51 53 55 54 55 55 54 54 55 54 53 53 52 51 51 49 50 50 50 51 51 52 53 53 54 55 55 56 57 58 59 60 61 62 64 65 66 65 65 64 65 65 65 66 66 66 67 68 68 67 67 68 69 71 72 72 71 70 70 69 68 68 68 69 70 70 71 71 72 72 71 70 70 69 68 67 67 67 66 66 65 64 64 64 64
50 52 52 53 55 54 54 55 55 56 56 55 53 52 51 50 50 49 48 48 48 49 50 51 52 52 53 54 55 56 56 57 59 60 61 62 63 65 65 65 64 64 64 65 65 66 66 67 67 67 67 67 67 67 68 70 69 69 69 68 69 69 70 70 70 70 70 70 70 70 70 69 68 69 69 68 68 68 68 68 67 66 65 65 65 65 64
45 46 48 52 48 47 52 54 55 55 55 55 53 53 51 49 47 48 48 48 49 49 50 50 51 51 51 52 54 54 55 56 57 59 60 61 62 64 65 65 64 64 65 65 65 65 65 66 67 67 67 67 67 68 67 67 67 67 66 67 68 69 69 70 70 69 70 70 70 69 68 65 62 57 52 49 57 67 66 62 61 59 59 65 65 64 63
43 50 52 54 54 53 54 55 56 56 57 55 52 52 52 50 48 46 47 48 49 49 50 51 50 50 50 50 52 52 53 54 56 58 59 60 61 63 64 65 65 65 65 65 65 65 65 66 66 67 67 67 67 67 67 67 67 67 67 67 67 68 68 69 68 69 69 69 69 68 66 65 64 61 57 53 44 45 56 58 56 53 54 54 55 58 63
51 53 54 56 55 52 53 55 56 56 57 56 53 54 54 53 52 51 48 48 48 49 50 51 52 51 50 50 51 51 51 53 55 56 58 59 60 62 63 64 64 65 65 65 65 65 65 66 66 66 66 67 66 66 66 66 66 65 65 66 66 66 67 67 67 67 69 68 68 66 65 65 64 61 60 58 53 46 44 50 51 50 50 50 51 52 55
50 54 54 55 55 55 55 56 56 56 56 57 56 55 54 53 53 53 52 51 50 49 50 50 51 52 51 50 50 50 50 52 54 57 57 58 59 60 61 63 63 64 64 65 65 65 65 65 66 66 66 66 67 66 66 66 65 64 64 65 64 64 64 64 64 64 64 64 65 65 65 64 63 63 62 61 57 53 50 44 44 45 47 48 48 49 50
53 53 54 55 57 55 55 54 53 53 53 54 54 54 55 54 53 51 48 48 49 50 50 50 51 52 53 51 50 49 50 51 55 56 55 55 56 57 59 61 63 63 63 63 65 65 65 65 65 65 66 67 68 68 67 66 65 65 64 64 64 64 63 63 63 63 63 62 62 63 64 64 63 63 63 62 60 58 56 56 55 50 45 44 46 48 48
53 55 55 54 54 54 55 52 51 53 53 53 54 54 54 53 53 52 50 50 50 50 51 51 52 53 53 53 52 51 51 52 53 54 55 55 55 55 56 60 62 63 63 63 64 65 65 65 65 65 66 67 68 68 67 66 65 64 64 64 64 65 65 65 63 63 63 63 62 62 62 62 62 61 60 60 60 60 59 59 58 57 55 52 45 45 52
53 54 55 53 51 52 52 52 52 53 53 54 54 54 54 53 51 51 51 51 51 51 52 53 53 53 53 53 52 50 51 51 52 53 54 55 56 56 54 57 60 61 62 63 63 63 63 63 64 65 65 66 68 68 67 66 65 64 64 65 65 65 65 64 64 64 63 62 61 62 61 61 61 61 61 61 61 60 59 60 58 55 52 50 49 47 44
53 55 56 55 53 53 52 52 52 52 52 53 54 53 53 52 51 51 51 51 51 51 52 52 54 54 54 54 54 52 51 51 51 52 53 55 57 56 55 54 59 60 61 61 61 61 62 62 63 64 64 65 66 66 66 66 66 66 66 66 65 65 65 65 64 64 63 62 61 61 60 60 61 61 61 61 60 60 59 57 56 53 51 50 52 52 51
53 54 53 52 51 51 50 50 50 51 51 52 52 51 52 52 50 50 51 51 52 52 52 53 53 54 55 54 54 54 53 51 50 51 53 55 56 56 56 56 58 59 60 60 60 61 61 62 62 63 63 65 66 66 67 65 65 66 65 65 65 65 64 64 64 63 62 62 61 61 61 61 61 61 61 60 60 59 58 56 55 53 53 54 55 55 54
54 54 53 52 51 50 51 52 53 54 54 53 51 50 50 50 51 51 52 52 53 53 53 54 54 54 54 55 54 54 54 53 52 52 53 55 56 57 57 57 59 59 59 60 60 61 61 61 62 62 63 64 64 65 65 65 65 65 65 64 63 61 60 61 61 63 62 62 61 61 61 61 61 61 60 60 59 58 57 56 55 55 56 56 56 56 54
52 52 52 52 52 52 53 53 53 54 54 55 52 50 50 50 51 52 53 54 54 54 53 54 54 54 54 55 55 55 54 54 53 54 54 55 56 57 57 57 58 61 59 60 61 61 61 61 62 62 63 64 64 64 64 64 64 65 64 65 63 63 61 60 62 61 62 63 62 61 61 61 61 61 60 59 59 58 57 57 56 57 57 57 57 55 52
51 50 50 51 52 52 52 52 52 53 54 54 54 55 55 55 54 55 54 55 56 55 54 54 54 54 55 55 54 55 55 53 53 54 55 55 56 57 58 59 57 58 59 60 60 62 62 62 62 63 63 64 64 64 64 63 63 63 64 64 63 63 64 61 61 62 63 62 61 61 61 61 61 60 60 59 58 58 57 57 58 57 58 57 56 53 52
51 50 51 51 51 51 51 52 53 53 54 55 55 55 55 55 55 55 54 54 53 53 54 54 54 54 55 55 55 55 55 55 55 55 56 56 57 57 58 58 57 58 60 60 61 62 63 63 63 63 63 63 63 63 63 63 63 63 63 63 63 62 62 61 61 62 62 62 62 63 62 61 60 60 60 60 58 58 58 58 58 57 57 56 55 53 49
53 53 53 53 54 55 54 53 52 53 54 54 55 55 55 55 56 56 57 54 53 53 54 55 55 56 57 57 57 57 57 56 56 56 57 57 57 58 58 59 59 59 59 60 61 63 64 64 64 64 64 63 63 63 63 63 63 62 62 62 63 62 62 63 62 62 62 62 62 61 61 61 61 62 61 60 59 59 59 58 58 58 57 55 54 53 50
53 53 53 53 54 55 55 55 56 56 55 55 55 56 56 56 56 55 55 55 56 56 56 56 56 56 56 56 56 56 56 56 56 56 56 57 57 58 58 58 58 58 58 58 59 61 62 65 67 67 65 64 63 63 63 63 62 62 62 61 62 62 62 62 62 62 62 62 62 61 61 62 62 61 62 60 60 60 59 58 58 58 56 56 54 52 51
54 53 53 54 54 54 54 54 55 55 55 55 55 55 55 55 55 56 56 56 56 56 56 56 56 56 56 56 56 57 57 56 56 56 56 56 57 58 58 58 58 57 57 56 57 60 60 63 66 66 65 64 65 64 65 64 62 61 61 60 60 61 61 61 61 60 60 60 60 60 61 62 61 61 62 60 59 59 58 57 58 56 56 55 54 53 51
54 54 53 53 53 54 55 55 56 55 55 55 56 56 56 54 54 54 55 55 55 56 56 56 56 56 56 56 55 55 56 56 56 56 56 56 56 56 56 57 57 57 56 56 57 57 59 61 63 63 62 63 63 64 64 65 64 61 60 60 60 60 60 60 60 59 59 59 59 59 60 60 61 61 61 60 59 59 58 57 57 56 56 54 53 52 52
53 54 54 54 54 54 54 55 55 55 55 54 54 54 55 54 54 54 53 54 55 56 55 55 55 55 55 55 55 55 55 55 56 55 55 55 55 54 54 55 56 57 57 57 56 57 59 60 61 59 60 61 62 64 64 64 63 60 60 60 60 60 60 60 60 59 59 59 58 58 59 59 58 58 59 58 59 59 60 59 57 57 55 54 53 52 51
53 53 54 54 53 53 53 54 54 54 55 55 55 55 55 55 54 54 54 54 55 56 55 55 54 54 55 55 55 55 56 56 56 55 55 55 54 53 52 52 54 55 56 57 55 56 59 61 59 57 58 59 60 62 64 63 62 61 60 60 60 60 59 59 59 59 59 59 59 59 58 57 58 58 58 58 58 58 59 58 57 56 55 54 52 52 52
52 53 53 53 53 54 52 53 52 51 52 53 50 51 53 54 54 54 55 55 55 55 55 55 55 55 55 55 55 55 55 55 55 55 56 55 53 51 50 51 54 54 54 54 55 56 58 59 59 57 57 58 60 63 60 62 59 59 59 59 59 59 59 59 59 59 58 58 59 58 58 58 58 58 58 58 58 58 58 58 57 56 56 54 53 52 52
48 48 47 47 46 46 47 48 48 49 50 51 52 51 50 51 52 52 53 53 53 54 55 57 58 55 54 53 53 52 51 51 51 52 54 55 54 52 50 52 54 54 57 56 55 55 55 56 57 60 58 58 61 63 63 60 57 57 57 58 58 59 59 58 58 57 58 58 58 57 57 58 58 58 58 58 58 58 57 57 57 57 56 56 54 53 52
46 46 46 46 46 46 46 46 46 46 47 48 49 50 50 50 49 49 49 50 49 49 49 50 52 53 52 51 50 50 51 51 50 50 50 51 53 54 54 54 55 55 58 57 56 54 55 56 56 57 58 57 57 60 60 57 57 57 58 58 59 59 59 58 58 58 58 57 57 56 57 57 57 56 56 56 57 58 58 58 57 57 56 56 55 54 52
44 44 45 45 45 46 45 46 45 45 45 46 47 48 48 48 49 48 48 48 48 48 46 46 45 46 48 47 47 48 48 50 50 51 51 53 54 55 57 56 56 58 59 57 56 56 56 56 58 58 59 58 57 56 51 50 52 55 56 57 57 58 58 58 58 58 58 58 57 57 57 57 57 56 56 55 54 54 54 56 56 56 55 54 54 53 53
40 41 42 42 43 45 44 45 45 45 45 46 46 46 46 46 47 48 48 48 49 49 49 46 46 46 45 46 46 47 47 48 49 50 51 52 53 54 56 58 56 56 57 58 56 56 57 57 58 59 59 57 57 56 50 50 49 51 52 55 55 55 56 56 56 56 57 56 56 56 56 56 56 55 55 55 54 52 51 52 53 54 55 54 54 53 53
38 38 39 45 40 41 43 43 44 44 45 45 45 46 47 46 45 46 47 47 48 47 47 48 47 47 46 46 47 47 47 47 47 48 49 51 51 52 53 54 54 55 55 55 53 54 55 59 58 58 58 57 57 52 51 52 52 50 49 49 52 56 56 55 55 55 55 55 55 55 54 53 52 51 53 54 53 53 53 54 50 50 53 52 52 52 52
37 37 38 38 39 40 41 41 42 41 41 42 42 44 46 47 46 45 45 46 46 46 47 47 47 47 47 47 47 46 45 45 45 47 47 48 50 50 51 52 53 54 52 50 50 50 53 54 56 57 56 57 56 51 52 52 51 51 51 50 50 49 50 49 50 49 51 52 53 54 54 52 49 52 54 54 53 52 53 52 49 47 47 48 47 49 49
37 37 38 38 39 39 39 40 40 39 40 41 41 42 43 44 46 47 45 45 44 44 44 44 46 47 47 46 46 47 47 45 43 43 45 45 45 47 48 47 48 50 50 50 50 52 52 53 53 54 55 55 52 51 52 53 53 53 52 52 51 50 49 49 49 47 46 47 47 46 45 44 44 46 47 47 47 47 46 48 47 45 46 45 45 44 44
37 37 37 38 37 38 39 39 39 41 40 41 41 41 43 43 44 46 47 45 44 44 43 43 43 43 44 49 47 45 47 47 45 43 44 43 44 44 45 48 50 49 47 44 44 45 50 50 50 51 52 54 50 51 51 52 53 54 53 53 52 52 51 50 50 50 49 48 47 47 45 44 42 43 44 44 44 44 45 44 44 44 43 43 43 44 43
38 37 38 37 37 37 37 37 39 40 41 42 40 41 42 42 43 44 47 46 45 45 41 41 41 41 42 42 42 44 45 46 45 45 45 45 43 43 45 46 47 47 47 43 43 42 48 48 48 50 49 47 49 51 51 51 51 52 52 52 51 51 51 50 50 50 50 51 50 50 49 49 49 51 50 46 45 45 44 44 44 46 47 46 44 43 43
38 39 38 41 39 40 38 39 39 41 42 43 42 43 44 44 46 49 48 46 43 42 40 41 41 40 40 40 41 42 42 43 45 46 43 44 45 46 45 44 43 44 43 42 40 38 39 41 43 45 45 46 47 49 50 50 49 49 50 49 48 48 48 48 47 46 46 47 47 47 48 48 48 49 49 49 48 47 46 47 46 45 45 44 44 44 43
38 37 37 37 37 38 38 38 40 40 42 43 43 43 43 44 45 45 45 47 43 41 41 41 41 42 41 40 41 40 42 42 43 42 44 44 41 40 44 43 40 41 38 38 37 38 37 40 45 46 47 44 46 47 50 50 48 48 48 49 48 47 48 48 47 45 44 44 43 42 43 43 43 44 46 48 48 48 48 47 47 46 47 46 46 46 44